Regional Weather Roundup
Issued by NWS Green Bay, WI

Home | Current Version | Previous Version | Graphics & Text | Print | Product List | Glossary Off
Versions: 1 2 3 4 5 6 7 8 9 10 11 12 13 14 15 16 17 18 19 20 21 22 23 24 25 26 27 28 29 30 31 32 33 34 35 36 37 38 39 40 41 42 43 44 45 46 47 48 49 50

000
ASUS43 KGRB 210500
RWRGRB

NORTH-CENTRAL AND NORTHEAST WISCONSIN REGIONAL WEATHER ROUNDUP
NATIONAL WEATHER SERVICE GREEN BAY WI
1200 AM CDT THU SEP 21 2017

WIZ005-009-010>012-018-019-210600-
NORTH CENTRAL WISCONSIN

CITY           SKY/WX    TMP DP  RH WIND       PRES   REMARKS
IRONWOOD       CLOUDY    51  51 100 CALM      29.98R FOG
MANITOWISH WTR NOT AVBL
ARBOR VITAE    NOT AVBL
EAGLE RIVER    NOT AVBL
LAND O LAKES   CLOUDY    61  61 100 N5        30.00R
RHINELANDER    FOG       59  59 100 NW6       29.98R VSB 1/2
PHILLIPS       CLEAR     51  51 100 CALM      29.98R FOG
ANTIGO         NOT AVBL
TOMAHAWK       NOT AVBL
MERRILL        NOT AVBL
$$

WIZ013-073-210600-
NORTHEAST WISCONSIN

CITY           SKY/WX    TMP DP  RH WIND       PRES   REMARKS
IRON MOUNTAIN  FOG       65  63  93 N3        29.92F VSB 1/4
MARINETTE      CLOUDY    69  68  96 SW3       29.92R
$$

WIZ017-030-035>037-045-210600-
CENTRAL WISCONSIN

CITY           SKY/WX    TMP DP  RH WIND       PRES   REMARKS
MEDFORD        NOT AVBL
WAUSAU         CLOUDY    63  63 100 CALM      29.93S FOG
MOSINEE        NOT AVBL
MARSHFIELD     CLEAR     60  58  92 NW9       29.95R
WISC RAPIDS    FOG       64  64 100 CALM      29.94S VSB 1/4
STEVENS POINT  NOT AVBL
WAUPACA        NOT AVBL
SHAWANO        CLOUDY    70  66  88 SW5       29.92R
CLINTONVILLE   NOT AVBL
WAUTOMA        LGT RAIN  69  68  96 SE7       29.94S
$$

WIZ038-039-048-051-210600-
FOX VALLEY

CITY           SKY/WX    TMP DP  RH WIND       PRES   REMARKS
NWS GREEN BAY  CLOUDY    69  68  96 CALM      29.92R
APPLETON       CLOUDY    68  68 100 S13       29.93R
OSHKOSH        LGT RAIN  69  67  93 SE14G20   29.91F
FOND DU LAC    TSTM      68  65  90 E9        29.93F FOG
$$

WIZ022-050-052-210600-
EAST CENTRAL WISCONSIN

CITY           SKY/WX    TMP DP  RH WIND       PRES   REMARKS
EPHRAIM        FAIR      68  67  94 CALM      29.91R
WASHINGTON ISL NOT AVBL
STURGEON BAY   CLOUDY    70  69  97 NW6       29.93R FOG
MANITOWOC      NOT AVBL
SHEBOYGAN      TSTM      68  68 100 SE6       29.99R FOG
$$

LMZ563-521-522-541>543-210600-
LAKESHORE

STATION/POSITION TIME  TEMP    WIND        PRES    VSBY  WAVE
                       AIR SEA DIR/SP/G                  HT/PER
                 (UTC) (F)     (DEG/KT/KT) (MB)    (MI)  (FT/S)
SHEBOYGAN LKSHOR 0400   69     290/  6/  7 1015.1R
KEWAUNEE LKSHORE 0430   68     190/ 16/ 20 1010.8F
NORTHPORT PIER   0440   68     340/  4/ 11 1012.2S
N MID LAKE BUOY  0350   68 65  350/  2/  4 1013.1R         3/ 6
S GREEN BAY BUOY 0400   68 66  330/  4/  4 1011.6
SISTER BAY LKSHO 0419   68     300/  5/  5   N/A
MENOMINEE LKSHOR 0430   71     280/  2/  4 1012.1R
$$




USA.gov is the U.S. government's official web portal to all federal, state and local government web resources and services.